Regional Weather Roundup
Issued by NWS Portland, ME

Home | Current Version | Previous Version | Text Only | Print | Product List | Glossary On
Versions: 1 2 3 4 5 6 7 8 9 10 11 12 13 14 15 16 17 18 19 20 21 22 23 24 25 26 27 28 29 30 31 32 33 34 35 36 37 38 39 40 41 42 43 44 45 46 47 48 49 50
000
ASUS41 KGYX 230805
RWRGYX
WEATHER ROUNDUP FOR MAINE AND NEW HAMPSHIRE
NATIONAL WEATHER SERVICE GRAY ME
400 AM EDT SAT AUG 23 2014

MEZ002-005-006-010-012-015-018-020-021-024-026-027-029-230900-
MAINE

CITY           SKY/WX    TMP DP  RH WIND       PRES   REMARKS
PORTLAND       CLOUDY    58  56  93 CALM      30.12S
SANFORD        PTCLDY    52  46  82 CALM      30.12F
BAR HARBOR     CLOUDY    61  61 100 N3        30.11S
WISCASSET      CLOUDY    59  57  93 CALM      30.13S
ROCKLAND       CLOUDY    61  57  88 CALM      30.10S
FRYEBURG       MOCLDY    55  53  93 W3        30.14S FOG
LEWISTONAUBURN CLOUDY    57  54  88 CALM      30.13S
AUGUSTA        CLOUDY    61  59  93 N6        30.13S
WATERVILLE     CLOUDY    61  57  88 N6        30.09F
BANGOR         CLOUDY    63  57  81 N5        30.13S
GREENVILLE       N/A     58  54  86 CALM      30.13F
MILLINOCKET    CLOUDY    61  57  87 CALM      30.15S
HOULTON        CLOUDY    57  56  96 CALM      30.13S
PRESQUE ISLE   MOCLDY    54  52  94 CALM      30.14S
FRENCHVILLE    FOG       52  51  97 N3        30.15S VSB 1/4
CARIBOU        CLOUDY    55  55 100 N3        30.14S FOG
$$

NHZ002-005-008-009-011-012-014-230900-
NEW HAMPSHIRE

CITY           SKY/WX    TMP DP  RH WIND       PRES   REMARKS
PORTSMOUTH     PTCLDY    58  55  87 N5        30.10F
ROCHESTER      PTCLDY    55  53  93 NW3       30.11F
NASHUA         MOCLDY    61  58  90 CALM      30.12S
MANCHESTER     CLOUDY    61  55  81 N5        30.10S
CONCORD        CLOUDY    58  57  97 NE5       30.12S
LACONIA        CLOUDY    61  54  77 CALM      30.11F
PLYMOUTH       CLOUDY    58  58 100 CALM      30.13S
BERLIN         FOG       54  54 100 CALM      30.16S VSB 1/4
WHITEFIELD     MOCLDY    56  54  93 CALM      30.15R
JAFFREY        CLOUDY    58  56  93 CALM      30.13S
LEBANON        CLOUDY    61  58  90 CALM      30.12S FOG
MT WASHINGTON  MOCLDY    41  39  93 E13         N/A
$$

VTZ005-007-008-230900-
VERMONT

CITY           SKY/WX    TMP DP  RH WIND       PRES   REMARKS
ST JOHNSBURY     N/A     60  60 100 MISG      30.12S
MONTPELIER     CLOUDY    58  57  97 NE3       30.17S FOG
BURLINGTON     CLOUDY    62  59  90 CALM      30.12R
$$

MAZ007-012-024-CTZ003-RIZ002-NYZ038-NYZ072-230900-
SOUTHERN NEW ENGLAND AND NY

CITY           SKY/WX    TMP DP  RH WIND       PRES   REMARKS
BOSTON         MOCLDY    63  59  87 N9        30.09S
WORCESTER      CLOUDY    59  57  93 NE6       30.11S
NANTUCKET      PTCLDY    60  58  92 NE7       30.04S
PROVIDENCE     MOCLDY    64  60  87 N8        30.08S
HARTFORD       MOCLDY    64  59  83 N7        30.08S
ALBANY         CLOUDY    63  61  93 N3        30.09S
NEW YORK CITY  PTCLDY    68  60  75 E6        30.04S
$$

ANZ081-ANZ082-ANZ150-NHZ014-MEZ023>029-230900-
COASTAL MARINE OBSERVATIONS

STATION/POSITION TIME  TEMP    WIND        PRES    WAVE
                       AIR SEA DIR/SP/G            HT/PER
                 (UTC) (F)     (DEG/KT/KT) (MB)    (FT/S)
MATINICUS ROCK   0700          360/ 10/ 11 1018.7F
PORTLAND WX BUOY 0750   61 62  350/  8/ 10 1019.5F   2/ 8
WELLS            0700   58 63   10/  6/  7 1019.0F
ISLE OF SHOALS   0700   62      30/ 12/ 13 1018.9S
JEFFREYS LEDGE   0721      66                N/A     3/ 8
CASHES LEDGE BUO 0750   65 67              1018.1F   3/ 8
$$

.............KEY..............
   WCI - WIND CHILL
   TC  - TEMPERATURE IN CELSIUS
   VSB - VISIBILITY IN MILES
   HX  - HEAT INDEX
   FAIR- INDICATES FEW OR NO CLOUDS BELOW 12,000 FT, WITH NO
         SIGNIFICANT WEATHER AND/OR OBSTRUCTIONS TO VISIBILITY.




USA.gov is the U.S. government's official web portal to all federal, state and local government web resources and services.